Weather History for KNQI - December, 2012

Change the Weather History Date:

Friday, December 7, 2012

  Actual Average Record
Temperature  
Mean Temperature 70 °F -  
Max Temperature 84 °F 68 °F 84 °F (1996)
Min Temperature 55 °F 49 °F 26 °F (2011)
Cooling Degree Days 4    
Growing Degree Days 20 (Base 50)    
Moisture  
Dew Point 63 °F    
Average Humidity 88    
Maximum Humidity 100    
Minimum Humidity 48    
Precipitation  
Precipitation 0.00 in - - ()
Sea Level Pressure  
Sea Level Pressure 29.82 in    
Wind  
Wind Speed 5 mph (SE)    
Max Wind Speed 18 mph    
Max Gust Speed 23 mph    
Visibility 5 miles    
Events Fog    
Averages and records for this station are not official NWS values.
T = Trace of Precipitation, MM = Missing Value Source: NWS Daily Summary

Daily Weather History Graph

Daily Weather History Graph

Search for Another Location

Airport or City:

Trip Planner

Search our weather history database for the weather conditions in past years. The results will help you decide how hot, cold, wet, or windy it might be!

Date:

Astronomy

Dec. 07, 2012 Rise Set
Actual Time 7:09 AM CST 5:36 PM CST
Civil Twilight 6:43 AM CST 6:02 PM CST
Nautical Twilight 6:14 AM CST 6:31 PM CST
Astronomical Twilight 5:46 AM CST 6:59 PM CST
Moon 12:58 AM CST (12/7) 1:08 PM CST (12/7)
Length of Visible Light 11h 18m
Length of Day
10h 27m
Last Quarter, 38% of the Moon is Illuminated
Dec 7
Last Quarter
Dec 13
New
Dec 19
First Quarter
Dec 28
Full
Jan 4
Last Quarter

Hourly Weather History & Observations

Time (CST) Temp. Heat Index Dew Point Humidity Pressure Visibility Wind Dir Wind Speed Gust Speed Precip Events Conditions
12:32 AM 60.8 °F - 60.8 °F 100% 29.86 in 0.5 mi Calm Calm - N/A Fog Fog
12:46 AM 60.8 °F - 60.8 °F 100% 29.85 in 0.2 mi ESE 3.5 mph - N/A Fog Fog
12:56 AM 59.0 °F - 59.0 °F 100% 29.84 in 0.2 mi Calm Calm - N/A Fog Fog
1:43 AM 57.2 °F - 57.2 °F 100% 29.85 in 0.2 mi Calm Calm - N/A Fog Fog
1:56 AM 55.9 °F - 55.9 °F 100% 29.83 in 0.2 mi Calm Calm - N/A Fog Fog
2:56 AM 55.9 °F - 55.9 °F 100% 29.83 in 0.2 mi Calm Calm - N/A Fog Fog
3:56 AM 57.0 °F - 57.0 °F 100% 29.82 in 0.2 mi ENE 3.5 mph - N/A Fog Fog
4:17 AM 57.2 °F - 57.2 °F 100% 29.82 in 0.5 mi East 3.5 mph - N/A Fog Fog
4:47 AM 57.2 °F - 57.2 °F 100% 29.82 in 0.2 mi East 3.5 mph - N/A Fog Fog
4:56 AM 57.0 °F - 57.0 °F 100% 29.81 in 0.5 mi East 3.5 mph - N/A Fog Fog
5:56 AM 57.0 °F - 57.0 °F 100% 29.82 in 0.2 mi East 4.6 mph - N/A Fog Fog
6:28 AM 57.2 °F - 57.2 °F 100% 29.83 in 0.5 mi East 4.6 mph - N/A Fog Fog
6:30 AM 57.2 °F - 57.2 °F 100% 29.83 in 0.2 mi East 4.6 mph - N/A Fog Fog
6:46 AM 59.0 °F - 59.0 °F 100% 29.83 in 0.5 mi East 5.8 mph - N/A Fog Fog
6:56 AM 59.0 °F - 59.0 °F 100% 29.83 in 0.5 mi ESE 4.6 mph - N/A Fog Fog
7:01 AM 59.0 °F - 59.0 °F 100% 29.84 in 0.2 mi East 4.6 mph - N/A Fog Fog
7:56 AM 61.0 °F - 61.0 °F 100% 29.84 in 0.1 mi Calm Calm - N/A Fog Fog
8:20 AM 62.6 °F - 62.6 °F 100% 29.86 in 0.2 mi Calm Calm - N/A Fog Fog
8:25 AM 64.4 °F - 64.4 °F 100% 29.86 in 1.0 mi Calm Calm - N/A   Mostly Cloudy
8:30 AM 64.4 °F - 64.4 °F 100% 29.86 in 3.0 mi Calm Calm - N/A   Mostly Cloudy
8:56 AM 68.0 °F - 68.0 °F 100% 29.86 in 9.0 mi SE 3.5 mph - N/A   Mostly Cloudy
9:56 AM 75.0 °F - 70.0 °F 84% 29.86 in 10.0 mi South 15.0 mph - N/A   Mostly Cloudy
10:08 AM 75.2 °F - 69.8 °F 83% 29.87 in 10.0 mi South 15.0 mph 20.7 mph N/A   Mostly Cloudy
10:49 AM 80.6 °F 83.2 °F 68.0 °F 65% 29.87 in 10.0 mi South 18.4 mph - N/A   Mostly Cloudy
10:56 AM 79.0 °F - 66.9 °F 66% 29.86 in 10.0 mi South 17.3 mph 23.0 mph N/A   Mostly Cloudy
11:56 AM 82.0 °F 83.8 °F 64.9 °F 56% 29.83 in 10.0 mi South 17.3 mph - N/A   Mostly Cloudy
12:56 PM 82.9 °F 84.4 °F 64.0 °F 53% 29.79 in 10.0 mi South 13.8 mph 20.7 mph N/A   Mostly Cloudy
1:56 PM 84.9 °F 85.9 °F 63.0 °F 48% 29.76 in 10.0 mi SE 11.5 mph 18.4 mph N/A   Scattered Clouds
2:56 PM 82.9 °F 84.6 °F 64.9 °F 54% 29.74 in 10.0 mi SE 9.2 mph - N/A   Scattered Clouds
3:56 PM 82.0 °F 84.5 °F 66.9 °F 60% 29.74 in 10.0 mi ESE 15.0 mph - N/A   Scattered Clouds
4:56 PM 79.0 °F - 66.0 °F 64% 29.75 in 10.0 mi SE 17.3 mph 20.7 mph N/A   Scattered Clouds
5:56 PM 75.0 °F - 66.0 °F 73% 29.76 in 10.0 mi SE 11.5 mph 20.7 mph N/A   Clear
6:56 PM 73.0 °F - 66.9 °F 81% 29.78 in 10.0 mi SE 12.7 mph - N/A   Clear
7:56 PM 72.0 °F - 66.9 °F 84% 29.80 in 10.0 mi SE 10.4 mph - N/A   Clear
8:56 PM 71.1 °F - 66.9 °F 87% 29.83 in 10.0 mi SSE 8.1 mph - N/A   Clear
9:56 PM 68.0 °F - 66.0 °F 93% 29.84 in 10.0 mi SE 5.8 mph - N/A   Clear
10:56 PM 68.0 °F - 66.0 °F 93% 29.83 in 10.0 mi SE 5.8 mph - N/A   Scattered Clouds
11:56 PM 68.0 °F - 66.9 °F 96% 29.81 in 10.0 mi SE 6.9 mph - N/A   Clear